CZ-6A DEB, 54404

Orbit data source: Space-Track

CZ-6A DEB, 54404 is space debris in SSO originally from a launch on Fri, 11 Nov 2022 UTC launched from the Taiyaun Space Center, China (TSC). Debris objects in space refer to the collection of defunct objects orbiting the Earth. Examples of debris include non-operational satellites, rocket bodies, and fragments generated from explosions, collisions, or faulty payload assembly.

Loading next visibility...
Identifier
54404, 2022-151EC
Orbit
SSO
Country
Flag of CNCN / PRC
Related business
Manufacturer
SAST
Mission
Spacecraft
Bus & Motor
Unknown
Mass
Unknown
Launch date (UTC)
2022-11-11 (4 years ago)
Launch vehicle
Unknown
Launch site
Taiyaun Space Center, China (TSC)
Object type
Payload
Rocket body
Debris
Shape & HBR
Unknown shape, 0.4 m
Radar Cross Section
Medium (>0.1 m² and <1 m²)

Expand to show TLE details & history
Last TLE update: 18 hours ago

TLE from 18 hours ago
0 CZ-6A DEB
1 54404U 22151EC  26193.65882207  .00000482  00000-0  22815-3 0  9992
2 54404  98.7561 212.7526 0053175 271.3290  88.1797 14.23569811189913
Epoch: 2026-07-12T15:48Z
TLE epoch observation values (Epoch: 2026-07-12T15:48:42.226Z)
Latitude
-0.00004°
Longitude
45.02214°
Altitude
815.211 km
Speed
7.446 km/s
True Right ascension
14h 11m 00s
True Declination
0° 00' 00"
Sunlit
Object was in daylight at epoch
Visualization orbit readout
Latitude
Unknown
Longitude
Unknown
Altitude
Unknown
Speed
Unknown
Apparent Right ascension
Unknown
Apparent Declination
Unknown
Sunlit
N/A
Visualization observer readout
Local Sidereal Time
21:51:10
Azimuth
Unknown
Elevation
Unknown
Doppler factor
Unknown
Orbital elements
Apogee altitude
848.687 km
Perigee altitude
772.236 km
Semi-major axis
7,188.598 km
Eccentricity
0.00532
Inclination
98.7561°
RAAN
212.7526°
Arg. of periapsis
271.329°
True anomaly
88.78885°
Mean anomaly
88.1797°
Eccentric anomaly
88.48426°
Mean motion
3.56104 °/min
Orbital period
101.09 mins
BSTAR
0.00022815
Loading maneuver chart data...
Computing Atmospheric mass density...
Loading historical data...
Loading historical data...
Loading historical data...
Loading historical data...
Loading historical data...
Loading historical data...
Loading historical data...

Documentation

Showing up to 5 results
|